SCP
0 0 0 0 0 0 0 0 0 0 0 0 -0 -0 -0 -0 0 0 0 0 0 -0 -0 0 0 0 0 0 0 0 0 0 0 0 0 0 0 0 0 0 0 0 0 0 0
0 0 0 0 0 0 0 0 0 0 0 0 -0 -0 -0 -0 0 0 0 -0 -0 -0 0 0 0 0 0 0 0 0 0 0 0 0 0 0 0 0 0 0 0 0 0 0 0
0 0 0 0 0 0 0 0 0 0 0 0 0 0 0 0 0 0 0 -0 -0 -0 0 0 0 0 0 0 0 0 0 0 0 0 0 0 0 0 0 0 0 0 0 -0 0
0 0 0 0 0 0 0 0 0 0 0 0 0 0 0 0 0 0 0 -0 -0 0 0 0 0 0 0 0 0 0 0 0 0 0 0 0 0 0 0 0 0 0 0 -0 -0
0 0 0 0 0 0 0 0 0 0 0 0 0 0 0 0 0 0 0 -0 0 0 0 0 -0 0 0 0 0 0 0 0 0 0 0 0 0 0 0 0 0 0 0 0 -0
0 0 0 0 0 0 0 0 0 0 0 0 0 0 0 0 0 0 0 0 0 0 -0 -0 0 0 -0 0 0 0 0 0 0 0 0 0 0 0 0 0 0 0 0 0 0
0 0 0 0 0 0 0 0 0 0 0 0 0 0 0 0 0 0 0 0 0 0 0 0 -0 0 0 0 0 0 0 0 0 0 0 0 0 0 0 0 0 0 0 -0 -0
0 0 0 0 0 0 0 0 0 0 0 0 0 0 0 0 0 0 0 0 0 0 0 0 0 -0 0 0 0 0 0 0 0 0 0 0 0 0 0 0 0 0 0 0 -0
0 0 0 0 0 0 0 0 0 0 0 0 0 0 0 0 0 0 0 0 0 0 0 0 -0 -0 0 0 0 0 0 0 0 0 0 0 0 0 0 0 -0 0 0 0 -0
0 0 0 0 0 0 0 0 0 0 0 0 0 0 0 0 0 0 0 0 0 0 0 -0 -0 -0 0 0 0 0 0 0 0 0 0 0 0 0 0 0 0 0 0 0 0
0 0 0 0 0 0 0 0 0 0 0 0 0 0 0 0 0 0 0 0 0 0 0 -0 -0 -0 0 0 0 0 0 0 0 0 0 0 0 0 0 0 0 0 0 0 0
0 0 0 0 0 0 0 0 0 0 0 0 0 0 0 0 0 0 0 0 0 0 0 -0 -0 0 -0 0 0 0 0 0 0 0 0 0 0 0 0 0 0 0 0 0 0
0 0 0 0 0 0 0 0 0 0 0 0 0 0 0 0 0 0 0 0 0 0 0 0 0 -0 -0 0 0 0 0 0 0 0 0 0 0 0 0 0 0 0 0 0 0
0 0 0 0 0 0 0 0 0 0 0 0 0 0 0 0 0 0 0 0 0 0 0 0 0 0 0 0 0 0 0 0 0 0 0 0 0 0 0 0 0 0 0 0 0
0 0 0 0 0 0 0 0 0 0 0 0 0 0 0 0 0 0 0 0 0 0 0 -0 0 0 0 0 0 0 -0 -0 0 0 0 0 0 0 0 0 0 0 0 0 0
0 0 0 0 0 0 0 0 0 0 0 0 0 0 0 0 0 0 0 0 0 0 0 0 0 0 0 0 0 0 0 0 -0 -0 0 0 0 0 0 0 0 0 0 0 0
0 0 0 0 0 0 0 0 0 0 0 0 0 0 0 0 0 0 0 0 0 0 0 0 0 0 -0 0 0 0 0 0 -0 0 0 0 0 -0 0 0 0 0 0 0 0
0 0 0 0 0 0 0 0 0 0 0 0 0 0 0 0 0 0 0 0 0 0 0 0 0 0 -0 0 0 0 0 0 0 -0 0 0 0 0 0 0 0 0 0 0 0
0 0 0 0 0 0 0 0 0 0 0 0 0 0 0 0 0 0 0 0 0 0 0 0 0 0 0 -0 0 0 0 0 0 0 0 0 0 0 0 0 0 0 0 0 0
0 0 0 0 0 0 0 0 0 0 0 0 0 0 0 0 0 0 0 0 0 0 0 0 0 0 0 -0 -0 0 0 0 0 0 0 0 0 0 0 -0 -0 -0 -0 0 0
0 0 0 0 0 0 0 0 0 0 0 0 0 0 0 0 0 0 0 0 0 0 0 0 0 0 0 -0 0 0 0 0 0 0 0 0 0 0 0 0 0 0 -0 0 -0
0 0 0 0 0 0 0 0 0 0 0 0 0 0 0 0 0 0 0 0 0 0 0 0 0 0 0 0 0 -0 0 0 0 0 0 0 0 0 0 0 0 0 0 0 0
0 0 0 0 0 0 0 0 0 0 0 0 0 0 0 0 0 0 0 0 0 0 0 0 0 0 0 0 0 0 -0 0 0 0 0 0 0 0 0 0 0 0 0 0 0
0 0 0 0 0 0 0 0 0 0 0 0 0 0 0 0 0 0 0 0 0 0 0 0 0 0 0 0 0 0 -0 -0 0 0 0 0 0 0 0 0 0 0 0 0 0
0 0 0 0 0 0 0 0 0 0 0 0 0 0 0 0 0 0 0 0 0 0 0 0 0 0 0 0 0 0 0 -0 -0 0 0 0 0 0 0 0 0 0 0 0 0
0 0 0 0 0 0 0 0 0 0 0 0 0 0 0 0 0 0 0 0 0 0 0 0 0 0 0 0 0 0 0 0 -0 0 0 -0 0 0 0 0 0 0 0 0 0
0 0 0 0 0 0 0 0 0 0 0 0 0 0 0 0 0 0 0 0 0 0 0 0 0 0 0 0 0 0 0 0 0 0 0 0 0 0 0 0 0 0 0 0 0
Wind_Speed_500mb
11 10 9 10 12 13 14 15 16 16 15 13 10 5 1 10 23 14 20 24 24 13 10 13 11 11 12 15 13 4 9 5 3 3 1 10 8 14 8 13 15 39 41 59 74
14 12 11 9 9 11 12 12 14 15 13 12 10 6 4 2 9 28 27 21 17 11 10 9 19 20 11 11 12 13 9 5 1 4 2 6 4 13 10 19 16 49 56 67 67
17 14 13 11 9 8 9 11 11 12 11 9 9 6 3 2 5 17 23 21 16 10 9 11 15 14 16 16 17 9 7 11 3 5 1 5 8 7 9 7 30 46 58 65 68
18 16 14 11 9 8 7 8 10 10 9 8 4 7 6 3 2 11 18 19 21 9 7 15 7 9 11 9 8 13 14 9 5 3 1 0 7 5 14 14 35 43 45 64 56
21 18 15 11 9 8 7 7 8 8 8 6 3 1 2 8 8 8 15 19 18 11 10 16 21 12 9 8 11 13 7 9 1 2 2 2 4 4 12 28 39 44 48 51 49
23 20 16 13 9 8 5 6 6 7 7 5 3 2 2 6 3 6 12 16 21 20 14 10 20 25 20 8 8 12 14 6 8 5 4 2 2 3 10 33 44 50 50 50 48
25 22 18 15 11 9 5 4 4 3 3 5 6 7 8 7 5 3 7 14 22 22 21 21 13 4 11 8 14 15 8 3 5 4 2 3 6 2 19 34 44 50 48 53 49
27 25 21 17 13 9 7 4 1 0 2 4 2 3 7 7 7 6 5 10 14 21 24 25 26 25 10 20 8 6 9 4 2 12 2 5 9 2 21 36 46 51 51 59 58
31 28 23 19 15 11 7 5 2 2 3 6 3 4 6 5 4 8 7 9 11 17 19 15 15 12 7 7 8 13 1 5 8 6 9 7 7 4 22 32 43 49 49 57 63
34 31 26 21 17 13 9 7 6 5 6 7 5 3 6 4 5 9 10 9 8 12 10 9 10 8 9 9 6 6 3 5 6 7 10 8 9 14 19 26 36 44 51 65 65
36 33 27 23 19 15 12 12 8 4 6 4 5 6 9 10 7 9 10 13 10 10 6 12 14 4 1 5 8 11 8 2 8 6 8 5 10 13 16 22 37 43 47 59 63
37 35 29 25 22 18 19 11 9 7 8 6 7 7 11 9 3 7 8 4 6 7 6 13 7 5 8 5 6 7 4 6 10 8 4 5 9 7 9 10 25 35 45 58 63
38 38 33 28 25 22 23 17 10 8 6 4 6 7 9 8 4 4 6 7 10 8 8 11 5 6 3 3 6 2 2 2 7 10 3 5 11 6 0 13 23 34 39 48 54
39 39 36 30 22 23 24 20 12 13 9 4 6 5 9 10 5 6 9 6 6 10 9 9 5 4 2 0 3 6 3 3 8 6 1 5 6 7 6 6 12 27 37 41 47
41 39 38 38 16 33 19 22 21 9 4 3 6 9 11 7 13 5 8 7 7 8 9 6 10 5 3 2 3 3 6 6 6 4 4 8 6 11 0 2 7 16 25 30 35
44 42 42 41 26 27 25 30 20 11 11 5 6 9 8 4 4 8 6 10 11 10 11 5 1 2 4 2 3 2 6 2 7 5 7 7 7 9 4 3 3 2 14 21 28
46 48 47 42 30 33 38 33 9 8 9 6 8 9 5 9 5 5 8 6 10 11 3 9 2 3 2 3 5 10 8 5 9 8 7 5 4 14 5 6 10 12 11 14 19
48 50 49 44 35 41 47 8 7 4 12 5 7 6 10 10 3 6 8 5 5 8 7 10 8 6 2 1 6 4 8 8 7 3 8 7 5 6 3 11 14 11 11 13 14
58 53 46 48 42 51 28 6 15 15 14 19 8 8 3 5 9 7 12 11 13 14 10 9 3 2 3 2 3 1 3 4 10 4 5 5 12 0 6 7 14 15 11 11 12
71 57 53 51 45 51 6 12 10 8 12 8 13 8 13 10 9 10 15 7 11 7 10 10 9 1 2 0 3 3 5 5 6 4 4 8 9 8 9 16 15 19 25 18 14
76 31 38 49 49 29 10 14 10 15 9 13 12 9 11 13 13 11 16 1 8 9 8 10 6 6 2 7 11 2 3 4 5 4 7 1 11 11 6 10 19 33 33 27 22
69 8 54 58 18 8 8 13 11 10 9 4 8 8 15 13 10 7 17 5 12 20 15 7 8 7 5 0 1 4 6 8 8 7 2 3 11 5 7 8 17 23 32 28 22
64 17 57 68 11 6 1 2 9 9 10 12 9 6 5 12 8 7 9 1 9 7 13 12 2 5 13 8 7 8 8 5 7 6 8 9 10 1 9 9 15 24 28 31 30
36 7 13 26 11 16 12 8 9 14 7 9 10 12 9 5 7 11 7 5 3 8 10 7 7 10 12 9 8 6 8 8 4 5 9 12 11 10 10 12 15 22 29 32 37
27 15 27 16 20 9 22 21 15 11 9 17 3 9 15 9 4 5 4 5 3 10 5 8 9 3 3 4 7 7 8 13 15 9 10 5 13 12 14 13 24 22 27 39 42
39 19 20 15 55 17 24 20 28 14 18 13 10 20 14 14 16 20 17 10 12 7 10 2 5 6 6 10 7 8 15 16 12 9 17 15 29 12 19 19 27 26 35 47 52
46 44 58 37 33 24 21 20 29 25 15 15 24 15 14 10 10 25 18 25 19 16 9 10 12 7 8 5 5 13 18 26 13 10 15 13 18 6 7 10 9 9 19 45 56
Wind_Direction_500mb
256 272 290 312 327 340 347 356 4 8 14 23 35 39 195 46 45 47 43 27 27 39 40 56 53 82 81 68 54 71 63 87 55 62 212 355 16 1 357 9 5 343 330 315 311
254 263 276 293 315 329 342 355 3 5 16 22 31 48 165 44 51 43 36 26 14 26 63 67 55 59 66 33 28 61 82 138 274 131 180 319 32 342 0 358 334 332 340 337 331
255 262 273 285 298 317 336 346 1 7 10 24 44 64 111 131 42 19 29 21 11 19 47 80 66 57 58 38 17 45 111 158 92 76 94 350 13 56 3 335 344 325 328 335 327
243 257 266 278 291 305 324 344 353 5 17 19 58 83 63 39 116 24 30 25 18 35 67 70 93 65 68 45 34 95 67 115 120 26 167 3 339 133 22 333 335 335 323 336 331
246 248 254 260 276 291 313 334 349 359 20 24 32 245 16 60 75 50 36 32 28 41 89 95 73 85 95 100 63 78 147 96 117 238 120 28 8 176 4 344 347 349 342 335 337
242 244 246 250 252 264 284 318 348 355 18 20 89 85 107 86 60 45 44 36 44 56 71 101 88 104 87 75 76 128 127 120 37 158 178 55 218 353 311 348 355 359 352 349 343
236 237 239 242 243 253 264 290 331 1 31 75 105 74 78 105 75 40 55 45 55 70 90 89 102 100 113 99 115 127 92 22 7 330 214 7 276 294 346 354 360 360 358 1 2
228 232 231 232 231 232 241 262 278 331 190 181 120 60 93 96 77 55 87 77 84 80 82 98 95 81 67 119 71 61 51 50 256 10 348 74 280 5 359 4 1 1 1 8 8
225 222 223 225 222 218 225 226 202 165 175 173 164 129 106 117 77 87 107 119 102 95 90 88 76 73 68 73 30 12 118 352 330 69 353 58 301 316 357 9 5 4 4 14 26
222 220 216 215 216 212 211 191 167 152 140 143 165 119 154 120 88 99 104 109 120 108 82 49 56 62 30 60 209 215 79 313 286 324 7 352 290 326 6 18 9 8 11 21 26
223 217 212 209 206 205 192 155 160 154 170 148 129 119 143 125 107 126 117 99 88 70 73 33 66 88 165 40 85 109 106 225 264 288 359 337 299 331 348 28 10 13 11 21 26
222 214 205 203 200 198 195 198 199 153 112 114 142 147 150 150 113 114 129 90 70 98 69 29 89 197 135 152 111 102 111 304 289 277 120 356 311 326 341 43 20 17 20 25 25
222 213 201 196 200 196 202 204 184 166 90 159 165 154 157 160 126 98 127 107 81 56 35 111 160 151 11 333 334 88 27 309 241 318 246 338 327 357 153 59 23 30 35 35 32
227 211 200 187 199 196 204 201 185 163 70 204 197 189 164 154 63 106 109 113 56 134 108 100 169 112 220 255 50 342 37 347 296 11 176 65 270 312 184 25 15 24 37 34 35
223 208 199 186 189 185 191 178 156 134 356 127 157 158 152 154 140 66 107 77 100 108 105 222 166 164 224 184 138 224 20 337 303 319 21 343 74 272 277 241 349 18 39 46 44
222 207 197 191 186 180 168 154 139 51 257 162 142 170 126 121 116 120 110 86 110 72 35 116 70 98 197 288 239 5 52 39 16 343 26 299 104 289 293 164 180 20 56 56 60
215 205 196 189 187 172 157 149 58 146 356 249 198 169 163 149 130 147 140 117 142 90 330 356 355 318 63 105 22 52 51 359 346 13 210 349 54 242 234 177 171 167 119 80 70
205 198 194 189 185 170 157 68 132 225 209 180 144 114 169 156 148 144 113 141 224 104 111 146 312 171 8 222 190 178 139 148 197 330 288 325 257 262 215 147 144 148 127 110 89
196 193 196 187 183 172 177 109 209 200 164 144 76 101 261 213 136 141 189 190 188 179 143 136 321 322 69 42 95 52 53 162 111 74 41 281 299 121 156 196 177 179 185 154 124
185 186 196 186 182 176 127 224 215 192 128 119 155 152 182 216 136 165 182 197 182 185 134 197 102 283 56 255 72 125 181 53 359 73 314 300 282 245 243 235 215 201 206 189 175
178 165 192 184 177 183 179 219 213 204 174 143 172 140 189 186 163 179 196 285 157 160 129 147 111 258 34 208 178 170 170 97 116 143 156 298 273 210 261 235 208 209 207 199 189
165 153 168 173 162 180 180 189 164 163 184 129 123 116 164 168 145 174 181 233 173 160 156 175 128 140 164 270 335 287 231 166 127 229 256 114 276 226 201 288 229 217 205 203 201
158 124 169 176 162 206 344 18 184 139 189 164 167 143 162 162 120 153 158 240 164 142 160 172 298 63 354 2 4 234 224 203 113 90 205 143 259 301 292 305 227 221 205 208 204
143 129 164 209 215 149 140 203 199 210 183 167 138 116 112 118 14 161 135 175 162 129 137 141 119 183 175 167 147 201 193 197 145 117 175 227 278 273 276 254 251 237 230 215 213
156 186 173 186 217 194 179 161 153 163 219 188 35 196 158 123 73 158 128 126 45 156 123 124 160 150 272 161 141 168 192 189 210 222 190 255 219 254 251 235 240 260 239 221 218
159 147 149 167 179 177 189 199 173 174 152 216 193 182 172 159 185 187 146 189 186 168 156 50 171 101 346 328 98 240 211 194 239 252 271 278 286 230 292 254 265 257 238 224 224
183 170 161 166 177 184 199 178 194 158 220 200 172 132 172 209 124 115 128 135 138 137 140 135 138 108 251 340 348 311 217 185 179 209 185 206 227 226 235 251 241 295 278 241 236
Wind_Speed_850mb
11 10 9 10 12 13 14 15 16 16 15 13 10 5 1 10 23 14 20 24 24 13 10 13 11 11 12 15 13 4 9 5 3 3 1 10 8 14 8 13 15 39 41 59 74
14 12 11 9 9 11 12 12 14 15 13 12 10 6 4 2 9 28 27 21 17 11 10 9 19 20 11 11 12 13 9 5 1 4 2 6 4 13 10 19 16 49 56 67 67
17 14 13 11 9 8 9 11 11 12 11 9 9 6 3 2 5 17 23 21 16 10 9 11 15 14 16 16 17 9 7 11 3 5 1 5 8 7 9 7 30 46 58 65 68
18 16 14 11 9 8 7 8 10 10 9 8 4 7 6 3 2 11 18 19 21 9 7 15 7 9 11 9 8 13 14 9 5 3 1 0 7 5 14 14 35 43 45 64 56
21 18 15 11 9 8 7 7 8 8 8 6 3 1 2 8 8 8 15 19 18 11 10 16 21 12 9 8 11 13 7 9 1 2 2 2 4 4 12 28 39 44 48 51 49
23 20 16 13 9 8 5 6 6 7 7 5 3 2 2 6 3 6 12 16 21 20 14 10 20 25 20 8 8 12 14 6 8 5 4 2 2 3 10 33 44 50 50 50 48
25 22 18 15 11 9 5 4 4 3 3 5 6 7 8 7 5 3 7 14 22 22 21 21 13 4 11 8 14 15 8 3 5 4 2 3 6 2 19 34 44 50 48 53 49
27 25 21 17 13 9 7 4 1 0 2 4 2 3 7 7 7 6 5 10 14 21 24 25 26 25 10 20 8 6 9 4 2 12 2 5 9 2 21 36 46 51 51 59 58
31 28 23 19 15 11 7 5 2 2 3 6 3 4 6 5 4 8 7 9 11 17 19 15 15 12 7 7 8 13 1 5 8 6 9 7 7 4 22 32 43 49 49 57 63
34 31 26 21 17 13 9 7 6 5 6 7 5 3 6 4 5 9 10 9 8 12 10 9 10 8 9 9 6 6 3 5 6 7 10 8 9 14 19 26 36 44 51 65 65
36 33 27 23 19 15 12 12 8 4 6 4 5 6 9 10 7 9 10 13 10 10 6 12 14 4 1 5 8 11 8 2 8 6 8 5 10 13 16 22 37 43 47 59 63
37 35 29 25 22 18 19 11 9 7 8 6 7 7 11 9 3 7 8 4 6 7 6 13 7 5 8 5 6 7 4 6 10 8 4 5 9 7 9 10 25 35 45 58 63
38 38 33 28 25 22 23 17 10 8 6 4 6 7 9 8 4 4 6 7 10 8 8 11 5 6 3 3 6 2 2 2 7 10 3 5 11 6 0 13 23 34 39 48 54
39 39 36 30 22 23 24 20 12 13 9 4 6 5 9 10 5 6 9 6 6 10 9 9 5 4 2 0 3 6 3 3 8 6 1 5 6 7 6 6 12 27 37 41 47
41 39 38 38 16 33 19 22 21 9 4 3 6 9 11 7 13 5 8 7 7 8 9 6 10 5 3 2 3 3 6 6 6 4 4 8 6 11 0 2 7 16 25 30 35
44 42 42 41 26 27 25 30 20 11 11 5 6 9 8 4 4 8 6 10 11 10 11 5 1 2 4 2 3 2 6 2 7 5 7 7 7 9 4 3 3 2 14 21 28
46 48 47 42 30 33 38 33 9 8 9 6 8 9 5 9 5 5 8 6 10 11 3 9 2 3 2 3 5 10 8 5 9 8 7 5 4 14 5 6 10 12 11 14 19
48 50 49 44 35 41 47 8 7 4 12 5 7 6 10 10 3 6 8 5 5 8 7 10 8 6 2 1 6 4 8 8 7 3 8 7 5 6 3 11 14 11 11 13 14
58 53 46 48 42 51 28 6 15 15 14 19 8 8 3 5 9 7 12 11 13 14 10 9 3 2 3 2 3 1 3 4 10 4 5 5 12 0 6 7 14 15 11 11 12
71 57 53 51 45 51 6 12 10 8 12 8 13 8 13 10 9 10 15 7 11 7 10 10 9 1 2 0 3 3 5 5 6 4 4 8 9 8 9 16 15 19 25 18 14
76 31 38 49 49 29 10 14 10 15 9 13 12 9 11 13 13 11 16 1 8 9 8 10 6 6 2 7 11 2 3 4 5 4 7 1 11 11 6 10 19 33 33 27 22
69 8 54 58 18 8 8 13 11 10 9 4 8 8 15 13 10 7 17 5 12 20 15 7 8 7 5 0 1 4 6 8 8 7 2 3 11 5 7 8 17 23 32 28 22
64 17 57 68 11 6 1 2 9 9 10 12 9 6 5 12 8 7 9 1 9 7 13 12 2 5 13 8 7 8 8 5 7 6 8 9 10 1 9 9 15 24 28 31 30
36 7 13 26 11 16 12 8 9 14 7 9 10 12 9 5 7 11 7 5 3 8 10 7 7 10 12 9 8 6 8 8 4 5 9 12 11 10 10 12 15 22 29 32 37
27 15 27 16 20 9 22 21 15 11 9 17 3 9 15 9 4 5 4 5 3 10 5 8 9 3 3 4 7 7 8 13 15 9 10 5 13 12 14 13 24 22 27 39 42
39 19 20 15 55 17 24 20 28 14 18 13 10 20 14 14 16 20 17 10 12 7 10 2 5 6 6 10 7 8 15 16 12 9 17 15 29 12 19 19 27 26 35 47 52
46 44 58 37 33 24 21 20 29 25 15 15 24 15 14 10 10 25 18 25 19 16 9 10 12 7 8 5 5 13 18 26 13 10 15 13 18 6 7 10 9 9 19 45 56
Wind_Direction_850mb
256 272 290 312 327 340 347 356 4 8 14 23 35 39 195 46 45 47 43 27 27 39 40 56 53 82 81 68 54 71 63 87 55 62 212 355 16 1 357 9 5 343 330 315 311
254 263 276 293 315 329 342 355 3 5 16 22 31 48 165 44 51 43 36 26 14 26 63 67 55 59 66 33 28 61 82 138 274 131 180 319 32 342 0 358 334 332 340 337 331
255 262 273 285 298 317 336 346 1 7 10 24 44 64 111 131 42 19 29 21 11 19 47 80 66 57 58 38 17 45 111 158 92 76 94 350 13 56 3 335 344 325 328 335 327
243 257 266 278 291 305 324 344 353 5 17 19 58 83 63 39 116 24 30 25 18 35 67 70 93 65 68 45 34 95 67 115 120 26 167 3 339 133 22 333 335 335 323 336 331
246 248 254 260 276 291 313 334 349 359 20 24 32 245 16 60 75 50 36 32 28 41 89 95 73 85 95 100 63 78 147 96 117 238 120 28 8 176 4 344 347 349 342 335 337
242 244 246 250 252 264 284 318 348 355 18 20 89 85 107 86 60 45 44 36 44 56 71 101 88 104 87 75 76 128 127 120 37 158 178 55 218 353 311 348 355 359 352 349 343
236 237 239 242 243 253 264 290 331 1 31 75 105 74 78 105 75 40 55 45 55 70 90 89 102 100 113 99 115 127 92 22 7 330 214 7 276 294 346 354 360 360 358 1 2
228 232 231 232 231 232 241 262 278 331 190 181 120 60 93 96 77 55 87 77 84 80 82 98 95 81 67 119 71 61 51 50 256 10 348 74 280 5 359 4 1 1 1 8 8
225 222 223 225 222 218 225 226 202 165 175 173 164 129 106 117 77 87 107 119 102 95 90 88 76 73 68 73 30 12 118 352 330 69 353 58 301 316 357 9 5 4 4 14 26
222 220 216 215 216 212 211 191 167 152 140 143 165 119 154 120 88 99 104 109 120 108 82 49 56 62 30 60 209 215 79 313 286 324 7 352 290 326 6 18 9 8 11 21 26
223 217 212 209 206 205 192 155 160 154 170 148 129 119 143 125 107 126 117 99 88 70 73 33 66 88 165 40 85 109 106 225 264 288 359 337 299 331 348 28 10 13 11 21 26
222 214 205 203 200 198 195 198 199 153 112 114 142 147 150 150 113 114 129 90 70 98 69 29 89 197 135 152 111 102 111 304 289 277 120 356 311 326 341 43 20 17 20 25 25
222 213 201 196 200 196 202 204 184 166 90 159 165 154 157 160 126 98 127 107 81 56 35 111 160 151 11 333 334 88 27 309 241 318 246 338 327 357 153 59 23 30 35 35 32
227 211 200 187 199 196 204 201 185 163 70 204 197 189 164 154 63 106 109 113 56 134 108 100 169 112 220 255 50 342 37 347 296 11 176 65 270 312 184 25 15 24 37 34 35
223 208 199 186 189 185 191 178 156 134 356 127 157 158 152 154 140 66 107 77 100 108 105 222 166 164 224 184 138 224 20 337 303 319 21 343 74 272 277 241 349 18 39 46 44
222 207 197 191 186 180 168 154 139 51 257 162 142 170 126 121 116 120 110 86 110 72 35 116 70 98 197 288 239 5 52 39 16 343 26 299 104 289 293 164 180 20 56 56 60
215 205 196 189 187 172 157 149 58 146 356 249 198 169 163 149 130 147 140 117 142 90 330 356 355 318 63 105 22 52 51 359 346 13 210 349 54 242 234 177 171 167 119 80 70
205 198 194 189 185 170 157 68 132 225 209 180 144 114 169 156 148 144 113 141 224 104 111 146 312 171 8 222 190 178 139 148 197 330 288 325 257 262 215 147 144 148 127 110 89
196 193 196 187 183 172 177 109 209 200 164 144 76 101 261 213 136 141 189 190 188 179 143 136 321 322 69 42 95 52 53 162 111 74 41 281 299 121 156 196 177 179 185 154 124
185 186 196 186 182 176 127 224 215 192 128 119 155 152 182 216 136 165 182 197 182 185 134 197 102 283 56 255 72 125 181 53 359 73 314 300 282 245 243 235 215 201 206 189 175
178 165 192 184 177 183 179 219 213 204 174 143 172 140 189 186 163 179 196 285 157 160 129 147 111 258 34 208 178 170 170 97 116 143 156 298 273 210 261 235 208 209 207 199 189
165 153 168 173 162 180 180 189 164 163 184 129 123 116 164 168 145 174 181 233 173 160 156 175 128 140 164 270 335 287 231 166 127 229 256 114 276 226 201 288 229 217 205 203 201
158 124 169 176 162 206 344 18 184 139 189 164 167 143 162 162 120 153 158 240 164 142 160 172 298 63 354 2 4 234 224 203 113 90 205 143 259 301 292 305 227 221 205 208 204
143 129 164 209 215 149 140 203 199 210 183 167 138 116 112 118 14 161 135 175 162 129 137 141 119 183 175 167 147 201 193 197 145 117 175 227 278 273 276 254 251 237 230 215 213
156 186 173 186 217 194 179 161 153 163 219 188 35 196 158 123 73 158 128 126 45 156 123 124 160 150 272 161 141 168 192 189 210 222 190 255 219 254 251 235 240 260 239 221 218
159 147 149 167 179 177 189 199 173 174 152 216 193 182 172 159 185 187 146 189 186 168 156 50 171 101 346 328 98 240 211 194 239 252 271 278 286 230 292 254 265 257 238 224 224
183 170 161 166 177 184 199 178 194 158 220 200 172 132 172 209 124 115 128 135 138 137 140 135 138 108 251 340 348 311 217 185 179 209 185 206 227 226 235 251 241 295 278 241 236